Regional Weather Roundup
Issued by NWS

Home | Current Version | Previous Version | Text Only | Print | Product List | Glossary Off
Versions: 1 2 3 4 5 6 7 8 9 10 11 12 13 14 15 16 17 18 19 20 21 22 23 24 25 26 27 28 29 30 31 32 33 34 35 36 37 38 39 40 41 42 43 44 45 46 47 48 49 50

286
ASUS43 KMKX 191720
RWRWI

WISCONSIN REGIONAL WEATHER ROUNDUP
NATIONAL WEATHER SERVICE MILWAUKEE/SULLIVAN WI
1100 AM CST THU JAN 19 2017

NOTE: "FAIR" INDICATES FEW OR NO CLOUDS BELOW 12,000 FEET WITH NO
SIGNIFICANT WEATHER AND/OR OBSTRUCTIONS TO VISIBILITY.

WIZ001-002-006>008-014>016-023>028-191800-
NORTHWEST WISCONSIN

CITY           SKY/WX    TMP DP  RH WIND       PRES   REMARKS
SUPERIOR ARPT  SUNNY     40  33  76 SW7       29.77F WCI  35
ASHLAND        SUNNY     40  33  76 S9        29.80F WCI  34
HAYWARD        SUNNY     38  32  79 S8        29.81F WCI  32
SIREN          SUNNY     39  32  75 S6        29.79F WCI  35
CUMBERLAND     FOG       32  32 100 SE8       29.82S VSB 3/4 WCI  25
RICE LAKE      FOG       32  32  99 SE8       29.85S VSB 1/2 WCI  25
CHETEK         CLOUDY    32  32 100 SE6       29.84F FOG     WCI  26
LADYSMITH      CLOUDY    34  34  99 SE5       29.86S FOG     WCI  30
EAU CLAIRE     SUNNY     35  32  88 SE7       29.84F FOG     WCI  29
MENOMONIE        N/A    N/A N/A N/A MISG        N/A
NEW RICHMOND   SUNNY     38  31  78 S12       29.82S WCI  30
OSCEOLA        SUNNY     38  32  80 SE6       29.83F WCI  33
$$

WIZ003>005-009-010-017-018-191800-
NORTH CENTRAL WISCONSIN

CITY           SKY/WX    TMP DP  RH WIND       PRES   REMARKS
MANITOWISH WTR CLOUDY    33  33 100 S7        29.83  FOG     WCI  27
ARBOR VITAE    CLOUDY    34  33  96 S6        29.84S FOG     WCI  29
WOODRUFF       CLOUDY    34  33  96 S6        29.84S FOG     WCI  29
RHINELANDER    FOG       33  33 100 SW6       29.86F VSB 1   WCI  28
EAGLE RIVER    CLOUDY    33  33 100 S5        29.84F FOG     WCI  28
LAND O LAKES   CLOUDY    34  34 100 S5        29.85F FOG     WCI  30
PHILLIPS       CLOUDY    33  33 100 S6        29.82F FOG     WCI  27
TOMAHAWK       CLOUDY    32  32  99 CALM      29.86F FOG
MEDFORD        FOG       31  31  99 S8        29.86S VSB<1/4 WCI  24
MERRILL        FOG       32  32 100 SE5         N/A  VSB 1/2 WCI  28
$$

WIZ029-030-035-036-043>047-191800-
CENTRAL WISCONSIN

CITY           SKY/WX    TMP DP  RH WIND       PRES   REMARKS
WAUSAU         FOG       32  32 100 S6        29.87F VSB 1/4 WCI  26
MOSINEE        FOG       32  32 100 S6        29.90S VSB 1/8 WCI  26
MARSHFIELD     FOG       31  31 100 SE8       29.87F VSB<1/4 WCI  23
STEVENS POINT  FOG       30  30 100 CALM      29.91F VSB 1/4
WAUPACA        CLOUDY    36  34  94 CALM      29.94F FOG
WAUTOMA        CLOUDY    36  34  93 SE6       29.92F FOG     WCI  31
WISC RAPIDS    FOG       32  32 100 SE5       29.91F VSB 3/4 WCI  27
CAMP DOUGLAS   CLOUDY    32  32 100 SE7       29.89F FOG     WCI  26
$$

WIZ011>013-019>022-031-037>040-048>050-191800-
NORTHEAST WISCONSIN

CITY           SKY/WX    TMP DP  RH WIND       PRES   REMARKS
ANTIGO         FOG       31  31 100 S3        29.88F VSB<1/4
SHAWANO        CLOUDY    35  33  93 CALM      29.93F FOG
OCONTO         CLOUDY    33  32  96 S3        29.93F
STURGEON BAY   FOG       33  33 100 S7        29.94F VSB 1   WCI  27
GREEN BAY      FOG       34  34 100 S8        29.95S VSB 1/4 WCI  27
MANITOWOC      CLOUDY    34  32  92 MISG      29.97F FOG
APPLETON       FOG       32  32 100 S6        29.93S VSB 1/8 WCI  26
CLINTONVILLE   FOG       32  32 100 S7        29.93F VSB 1/2 WCI  26
OSHKOSH        FOG       32  31  96 S6        29.92F VSB 1/4 WCI  26
$$

WIZ032>034-041-042-053>061-191800-
SOUTHWEST WISCONSIN

CITY           SKY/WX    TMP DP  RH WIND       PRES   REMARKS
LA CROSSE      CLOUDY    35  32  88 S7        29.89F FOG     WCI  29
SPARTA         SUNNY     38  33  80 CALM      29.89F
VIROQUA        CLOUDY    32  32 100 SE5       29.88F VSB<1/4 WCI  27
BOSCOBEL       CLOUDY    35  32  88 S3        29.94R FOG
PRAIRIE DU CHI CLOUDY    33  32  96 E5        29.91F FOG     WCI  28
PLATTEVILLE    CLOUDY    33  33 100 SE6       29.91F VSB<1/4 WCI  28
$$

WIZ056-057-062-063-064-067-068-191800-
SOUTH CENTRAL WISCONSIN

CITY           SKY/WX    TMP DP  RH WIND       PRES   REMARKS
REEDSBURG      FOG       32  32 100 CALM      29.92F VSB 3/4
BARABOO/DELLS  FOG       33  32  99 S6        29.92S VSB 3/4 WCI  27
LONE ROCK      FOG       33  32  96 E6        29.93F VSB 1/4 WCI  28
MINERAL POINT  FOG       34  34 100 SE7       29.91F VSB<1/4 WCI  28
MADISON        FOG       33  33 100 S7        29.94F VSB 1/2 WCI  27
MIDDLETON      CLOUDY    35  35 100 S5        29.93S WCI  31
WATERTOWN      FOG       32  32 100 SE6       29.94F VSB 1/4 WCI  27
MONROE         FOG       32  32 100 CALM      29.91F VSB<1/4
JANESVILLE     FOG       34  34 100 SE6       29.94F VSB 1/4 WCI  29
$$

WIZ051-052-058>065-066-070>072-191800-
SOUTHEAST WISCONSIN

CITY           SKY/WX    TMP DP  RH WIND       PRES   REMARKS
MILWAUKEE      FOG       34  33  96 S5        29.97F VSB 1/4 WCI  30
WAUKESHA       FOG       30  30 100 S6        29.97F VSB 1/4 WCI  24
MILWAUKEE/TIMM FOG       34  30  86 S3        29.98F VSB 3/4
RACINE         CLOUDY    34  34 100 CALM      29.97F FOG
KENOSHA        FOG       35  34  96 CALM      29.96F VSB 1/2
FOND DU LAC    CLOUDY    32  30  92 S9        29.92F FOG     WCI  24
SHEBOYGAN      CLOUDY    35  32  88 S8        29.95F FOG     WCI  29
WEST BEND      FOG       32  32 100 E5        29.95F VSB<1/4 WCI  27
JUNEAU         SNOW      32  32 100 SE9       29.95F VSB<1/4 WCI  24
$$

LSZ147-162-191800-
LAKE SUPERIOR

STATION/POSITION TIME  TEMP    WIND        PRES    WAVE
                       AIR SEA DIR/SP/G            HT/PER
                 (UTC) (F)     (DEG/KT/KT) (MB)    (FT/S)
DEVILS ISLAND    1700   36     170/  6/  8 1009.6F
PORT WING        1640   43     230/  4/  5 1009.1F
SAXON HARBOR     1640   42     190/  6/ 11 1009.8S
$$

LMZ867-665-643>646-191800-
LAKE MICHIGAN

STATION/POSITION TIME  TEMP    WIND        PRES    WAVE
                       AIR SEA DIR/SP/G            HT/PER
                 (UTC) (F)     (DEG/KT/KT) (MB)    (FT/S)
NORTHPORT PIER   1700   33     180/  3/  7 1013.5
SISTER BAY       1650   34     190/ 10/ 12   N/A
KEWAUNEE LAKESHO 1654   33     180/ 10/ 12 1014.2F
SHEBOYGAN LAKESH 1700   34     180/ 15/ 16 1014.9F
PORT WASHINGTON  1640   33     160/  4/  7 1016.3S
MILWAUKEE LAKESH 1700   33     160/  5/  6   N/A
KENOSHA   LAKESH 1700   34     130/  3/  3 1014.9
$$

TC  - TEMPERATURE IN CELSIUS
VSB - VISIBILITY IN STATUTE MILES
WCI - WIND CHILL INDEX
HX  - HEAT INDEX





USA.gov is the U.S. government's official web portal to all federal, state and local government web resources and services.